[[{"header":{"parameterUnit":"m.s-1","parameterCategory":1,"la1":30.2991,"la2":30.254,"lo1":-89.0895,"lo2":-89.0444,"dy":0.0017,"dx":0.0017,"nx":28,"ny":28,"refTime":"2025-06-07T21:00:00:Z","depth":0,"parameterNumber":2,"parameterNumberName":"U-component_of_WINDS"},"data":[0,0,0,0,0,0,0,0,0,0,0,0,0,0,0,0,0,0,0,0,0,0,0,0,0,0,0,0,0,0,0,0,0,0,0,0,0,0,0,0,0,0,0,0,0,0,0,0,0,0,0,0,0,0,0,0,0,0,2.4691,2.4693,0,2.4915,2.4917,2.492,2.4942,2.4939,2.4937,2.4935,2.5174,2.5182,2.5191,0,0,0,0,0,0,0,0,0,0,0,0,0,2.4294,2.4301,2.469,2.4693,2.4696,2.4914,2.4917,2.4921,2.4942,2.4939,2.4936,2.4934,2.5171,2.5181,2.5191,0,0,0,0,0,0,0,0,0,0,0,0,0,2.4487,2.4304,2.469,2.4733,2.4739,2.4914,2.4918,2.4921,2.4943,2.4939,2.4936,2.4932,2.5168,2.518,2.5193,2.5343,0,0,2.5232,2.5238,0,0,0,0,0,0,0,0,2.4476,2.4502,2.4724,2.473,2.4737,2.4896,2.4866,2.5063,2.4944,2.4866,2.4935,2.4931,2.5085,2.5104,2.5155,2.5354,2.5365,2.5233,2.5241,2.5247,2.525,0,0,0,0,0,0,0,2.4463,2.4493,2.4779,2.4727,2.4735,2.4745,2.4769,2.4903,2.4993,2.4872,2.4874,2.49,2.5088,2.5142,2.516,2.5368,2.5233,2.5244,2.5252,2.5257,2.5712,2.5716,0,0,0,0,0,0,2.444,2.4481,2.4772,2.4786,2.4595,2.4755,2.4782,2.4849,2.4991,2.5009,2.4903,2.49,2.5122,2.5145,2.5169,2.536,2.5247,2.5259,2.5266,2.5708,2.5713,2.5718,0,0,0,0,0,0,2.4431,2.4466,2.4763,2.4634,2.4673,2.4766,2.4842,2.4855,2.4909,2.5014,2.5032,2.4941,2.512,2.5151,2.5301,2.5369,2.5264,2.5276,2.5703,2.5709,2.5715,2.574,0,0,0,0,0,0,2.442,2.4462,2.4517,2.4635,2.468,2.4887,2.4845,2.4862,2.493,2.4929,2.5054,2.5072,2.512,2.5282,2.5314,2.5384,2.5286,2.5697,2.5706,2.5713,2.5733,2.5746,2.5757,0,0,0,0,0,2.4406,2.4515,2.4519,2.4554,2.4749,2.4891,2.4917,2.4967,2.4935,2.4994,2.5063,2.5068,2.5355,2.5297,2.5333,2.5409,2.5693,2.5703,2.5713,2.5728,2.5744,2.5757,0,0,0,0,0,0,2.4403,2.4531,2.4537,2.4687,2.4778,2.4894,2.4969,2.4981,2.5084,2.5079,2.514,2.5168,2.5318,2.5378,2.5311,2.5566,2.5522,2.5539,2.5521,2.5537,2.5549,2.5532,2.5297,0,0,0,0,0,2.442,2.452,2.4628,2.4751,2.4796,2.4874,2.4938,2.4969,2.5067,2.5106,2.5185,2.5283,2.5397,2.547,2.5579,2.5742,2.5774,2.5813,2.5824,2.5834,2.5849,2.5948,2.5968,2.575,2.575,2.575,0,0,2.4455,2.4538,2.4598,2.4752,2.4826,2.4935,2.4906,2.502,2.5103,2.5124,2.5272,2.5334,2.5448,2.5607,2.5681,2.5662,2.5917,2.5846,2.5853,2.5864,2.596,2.5981,2.5999,2.5757,2.5755,2.5754,0,0,2.4577,2.4646,2.4759,2.4835,2.4947,2.5,2.5027,2.5143,2.5185,2.5333,2.5354,2.5455,2.5647,2.5729,2.5796,2.5956,2.5968,2.599,2.6054,2.6149,2.6167,2.6182,2.6245,2.6266,2.6005,2.6005,2.6005,0,2.4608,2.4768,2.4816,2.4932,2.5002,2.5025,2.5144,2.5216,2.5359,2.541,2.5385,2.5631,2.5709,2.5891,2.5931,2.5982,2.6021,2.5977,2.6159,2.6176,2.6191,2.6252,2.6275,2.6007,2.6007,2.6007,2.6007,0,2.4804,2.4916,2.4994,2.5131,2.5211,2.5327,2.5398,2.5474,2.55,2.5557,2.5712,2.5807,2.5939,2.5984,2.601,2.6173,2.6158,2.6146,2.6103,2.6213,2.6272,2.6295,2.6011,2.601,2.6009,2.6009,0,0,2.4928,2.5094,2.5122,2.5188,2.5317,2.5406,2.5527,2.5655,2.5721,2.5821,2.5928,2.6092,2.6084,2.616,2.6196,2.6279,2.6409,2.6258,2.6262,2.6287,2.6602,2.6613,2.6638,2.6416,2.6421,2.6424,2.6594,0,2.5068,2.5279,2.533,2.5514,2.5622,2.5648,2.5755,2.5848,2.5906,2.601,2.6076,2.6194,2.617,2.6218,2.63,2.6375,2.6473,2.6363,2.6522,2.6527,2.6496,2.6668,2.6679,2.6834,2.6617,2.662,2.6623,0,2.5258,2.5362,2.5556,2.5677,2.5724,2.5818,2.5943,2.604,2.615,2.6187,2.6275,2.6305,2.6438,2.6387,2.6576,2.65,2.6569,2.6616,2.6623,2.6643,2.6584,2.6697,2.6884,2.6909,2.6659,2.6656,2.6653,0,2.5336,2.5524,2.5667,2.5722,2.5864,2.5931,2.5995,2.61,2.6176,2.6287,2.6338,2.6463,2.6533,2.6632,2.6698,2.6653,2.6884,2.6836,2.6924,2.6922,2.6972,2.6969,2.7178,2.701,2.7009,2.7009,2.7009,0,2.5488,2.5608,2.5704,2.5792,2.593,2.5989,2.6125,2.6189,2.6284,2.639,2.6421,2.652,2.6598,2.671,2.6762,2.6915,2.6945,2.6983,2.6996,2.6983,2.6979,2.7031,2.7023,2.7015,2.7014,2.7013,2.7012,0,2.5598,2.5667,2.5825,2.5949,2.5983,2.6079,2.6188,2.6278,2.6338,2.6471,2.6507,2.6603,2.6737,2.6811,2.6979,2.7015,2.7187,2.7192,2.7149,2.7156,2.7241,2.7234,2.7494,2.7534,2.7335,2.7337,2.7338,0,2.5693,2.5785,2.592,2.5992,2.6056,2.6171,2.6249,2.6314,2.6395,2.6531,2.6606,2.6741,2.6853,2.7068,2.7156,2.7287,2.7299,2.7381,2.7319,2.7304,2.7307,2.7302,2.7315,2.7393,2.7394,2.7396,2.7397,0,2.5855,2.5886,2.5996,2.612,2.6213,2.6314,2.6415,2.6473,2.6555,2.6646,2.6783,2.687,2.7043,2.718,2.7319,2.739,2.7411,2.7416,2.7444,2.7433,2.7406,2.7428,2.7184,2.741,2.7409,2.7408,2.7407,2.7407,2.5964,2.6051,2.616,2.6284,2.6367,2.6462,2.6554,2.6627,2.6741,2.6886,2.6918,2.7064,2.7179,2.7368,2.7443,2.7562,2.7547,2.7586,2.7597,2.7607,2.7613,2.7384,2.7587,2.7587,2.7587,2.7587,2.7586,0,2.6133,2.6206,2.6319,2.646,2.6559,2.6566,2.668,2.6764,2.6891,2.6995,2.7106,2.7267,2.7402,2.7501,2.764,2.7717,2.7731,2.7752,2.7749,2.7767,2.7616,2.758,2.7739,2.7739,2.7739,2.7739,2.7739,2.7739,2.6233,2.6381,2.6427,2.662,2.6693,2.6834,2.69,2.699,2.7074,2.7252,2.7364,2.7427,2.7533,2.768,2.7806,2.7833,2.7885,2.7906,2.7935,2.7793,2.7776,2.7761,2.7728,2.7916,2.7916,2.8077,2.8078,2.8079]},{"header":{"parameterUnit":"m.s-1","parameterCategory":1,"la1":30.2991,"la2":30.254,"lo1":-89.0895,"lo2":-89.0444,"dy":0.0017,"dx":0.0017,"nx":28,"ny":28,"refTime":"2025-06-07T21:00:00:Z","depth":0,"parameterNumber":3,"parameterNumberName":"V-component_of_WINDS"},"data":[0,0,0,0,0,0,0,0,0,0,0,0,0,0,0,0,0,0,0,0,0,0,0,0,0,0,0,0,0,0,0,0,0,0,0,0,0,0,0,0,0,0,0,0,0,0,0,0,0,0,0,0,0,0,0,0,0,0,5.0286,5.029,0,5.0624,5.0627,5.0631,5.0685,5.0682,5.0679,5.0677,5.1018,5.1029,5.1041,0,0,0,0,0,0,0,0,0,0,0,0,0,4.9686,4.9696,5.0286,5.029,5.0295,5.0623,5.0628,5.0632,5.0686,5.0682,5.0679,5.0675,5.1014,5.1028,5.1042,0,0,0,0,0,0,0,0,0,0,0,0,0,4.9977,4.97,5.0285,5.0361,5.0371,5.0622,5.0628,5.0633,5.0687,5.0682,5.0678,5.0674,5.1009,5.1027,5.1044,5.1242,0,0,5.1098,5.1106,0,0,0,0,0,0,0,0,4.996,4.9999,5.0346,5.0356,5.0368,5.0608,5.0541,5.0837,5.0688,5.0567,5.0677,5.0671,5.0885,5.0912,5.0985,5.1258,5.1272,5.11,5.1111,5.1118,5.1123,0,0,0,0,0,0,0,4.994,4.9985,5.0419,5.0351,5.0364,5.0377,5.0414,5.0597,5.0746,5.0577,5.0582,5.0621,5.089,5.0968,5.0994,5.1277,5.1099,5.1115,5.1126,5.1133,5.1732,5.1737,0,0,0,0,0,0,4.9907,4.9967,5.0409,5.043,5.0149,5.0392,5.0432,5.0535,5.0744,5.0772,5.0624,5.0622,5.094,5.0973,5.1006,5.1254,5.1118,5.1135,5.1145,5.1727,5.1733,5.1739,0,0,0,0,0,0,4.9894,4.9946,5.0395,5.02,5.0258,5.0407,5.0522,5.0544,5.0623,5.078,5.0807,5.0677,5.0938,5.0981,5.1184,5.1267,5.1143,5.1159,5.172,5.1729,5.1736,5.175,0,0,0,0,0,0,4.9876,4.9941,5.0018,5.0202,5.0269,5.0569,5.0527,5.0554,5.0654,5.0654,5.0837,5.0863,5.0938,5.1157,5.1201,5.1289,5.1173,5.1714,5.1724,5.1733,5.1743,5.1758,5.177,0,0,0,0,0,4.9854,5.0007,5.0022,5.0074,5.0369,5.0573,5.0611,5.0696,5.066,5.0739,5.0841,5.0857,5.1249,5.1177,5.1228,5.1322,5.1709,5.1721,5.1733,5.1737,5.1755,5.177,0,0,0,0,0,0,4.9827,5.0032,5.0051,5.0267,5.0403,5.0582,5.0684,5.0711,5.0858,5.0852,5.0949,5.099,5.1188,5.1275,5.119,5.1525,5.1476,5.1499,5.1462,5.1481,5.1494,5.147,5.1187,0,0,0,0,0,4.9847,4.9997,5.0167,5.0342,5.0409,5.0535,5.0627,5.068,5.0824,5.0881,5.0997,5.1134,5.1289,5.1389,5.154,5.1755,5.1796,5.1844,5.1857,5.1868,5.1887,5.201,5.2034,5.1778,5.1778,5.1777,0,0,4.9888,5.0018,5.0107,5.034,5.0451,5.0604,5.0582,5.0744,5.0859,5.0905,5.1105,5.1195,5.1355,5.1565,5.1664,5.1643,5.1967,5.1883,5.189,5.1904,5.2025,5.2049,5.207,5.1786,5.1784,5.1783,0,0,5.0043,5.0155,5.0315,5.0427,5.0597,5.068,5.0717,5.0894,5.0956,5.1158,5.1197,5.1333,5.1597,5.171,5.1802,5.2001,5.2023,5.2046,5.2118,5.2237,5.2257,5.2276,5.235,5.2374,5.2064,5.2065,5.2065,0,5.0072,5.0306,5.0393,5.0556,5.0658,5.0707,5.087,5.0973,5.1182,5.1251,5.1225,5.156,5.167,5.191,5.1958,5.203,5.2077,5.2028,5.2247,5.2267,5.2285,5.2357,5.2384,5.2067,5.2066,5.2066,5.2066,0,5.0336,5.0497,5.0606,5.0809,5.0923,5.1084,5.1195,5.1299,5.1342,5.1427,5.1633,5.1768,5.1949,5.2008,5.2051,5.2255,5.2237,5.2228,5.2181,5.231,5.238,5.2407,5.207,5.2069,5.2068,5.2068,0,0,5.0484,5.0735,5.0774,5.0868,5.1059,5.1185,5.1348,5.1526,5.1615,5.1757,5.1897,5.212,5.2114,5.2218,5.2273,5.2377,5.2529,5.2356,5.2361,5.2386,5.2765,5.2774,5.2804,5.2543,5.2549,5.2553,5.2753,0,5.0664,5.096,5.1043,5.1293,5.1444,5.1493,5.1636,5.1768,5.1852,5.1991,5.2083,5.2241,5.2219,5.2283,5.2387,5.2488,5.2607,5.2475,5.2676,5.2682,5.2639,5.2839,5.2849,5.3031,5.278,5.2785,5.2788,0,5.0914,5.1064,5.1329,5.1503,5.157,5.1697,5.1868,5.2,5.2151,5.2205,5.2322,5.2369,5.2541,5.2482,5.2722,5.263,5.2717,5.2779,5.2788,5.2813,5.2745,5.2873,5.3091,5.3119,5.2831,5.2827,5.2824,0,5.1,5.1267,5.1462,5.154,5.1747,5.1836,5.1925,5.2072,5.2174,5.2323,5.2391,5.2556,5.2647,5.2774,5.2864,5.2813,5.3097,5.3045,5.3147,5.3145,5.3208,5.3203,5.3446,5.3257,5.3257,5.3256,5.3256,0,5.1194,5.1355,5.1504,5.1624,5.1806,5.1899,5.2077,5.2168,5.2298,5.2437,5.2487,5.2615,5.2725,5.2868,5.2938,5.3127,5.3167,5.3216,5.3233,5.3214,5.3208,5.3275,5.3266,5.3264,5.3262,5.3261,5.3259,0,5.1323,5.1428,5.1644,5.1823,5.1871,5.1998,5.215,5.2268,5.2353,5.2528,5.2574,5.2708,5.2879,5.298,5.3195,5.3243,5.3454,5.3463,5.3404,5.3413,5.3511,5.3502,5.3808,5.3854,5.363,5.3632,5.3634,0,5.1441,5.1567,5.176,5.1857,5.1949,5.2104,5.221,5.2306,5.2414,5.2596,5.2692,5.2867,5.3012,5.3283,5.3399,5.3564,5.3581,5.3676,5.3606,5.3583,5.3587,5.358,5.3594,5.3689,5.3691,5.3693,5.3694,0,5.1642,5.1689,5.184,5.2011,5.2137,5.2275,5.2412,5.2488,5.2607,5.2725,5.2903,5.3015,5.3236,5.341,5.3585,5.3676,5.3707,5.3715,5.3748,5.3732,5.3693,5.3719,5.3441,5.3708,5.3707,5.3706,5.3705,5.3705,5.1773,5.1888,5.2043,5.221,5.2324,5.2452,5.2573,5.2674,5.2824,5.3013,5.3059,5.3246,5.3394,5.3633,5.3728,5.3875,5.386,5.3906,5.3919,5.393,5.3935,5.3667,5.3907,5.3906,5.3906,5.3906,5.3906,0,5.198,5.2082,5.2235,5.2427,5.2559,5.2576,5.2729,5.2838,5.3003,5.3139,5.3282,5.3486,5.3654,5.3783,5.3956,5.4048,5.4067,5.4091,5.4087,5.4108,5.3937,5.3893,5.4074,5.4074,5.4074,5.4074,5.4073,5.4073,5.2103,5.2301,5.2366,5.262,5.272,5.2905,5.2992,5.311,5.322,5.3447,5.3588,5.3671,5.3805,5.3988,5.4144,5.4177,5.424,5.4263,5.4299,5.4138,5.412,5.4103,5.4062,5.4275,5.4275,5.4459,5.446,5.4461]}]]